This is the latest recevied weather packets stored in our database for station/object KC9DNQ-3. If no packets are shown the sender has not sent any weather packets the latest 10 day(s).
| Time | Temp. | Humidity | Pressure | Rain* | Wind** | Luminosity | Snow |
|---|---|---|---|---|---|---|---|
| 1777833906 | 17.78° C | 48% | 1008.9 hPa | 0 mm | - | 867 W/m² | - |
| 1777833608 | 17.78° C | 47% | 1009 hPa | 0 mm | - | 874 W/m² | - |
| 1777833308 | 17.22° C | 50% | 1009.3 hPa | 0 mm | - | 865 W/m² | - |
| 1777833007 | 17.22° C | 50% | 1009.3 hPa | 0 mm | - | 807 W/m² | - |
| 1777832707 | 16.67° C | 50% | 1009.5 hPa | 0 mm | - | 737 W/m² | - |
| 1777832406 | 16.67° C | 53% | 1009.5 hPa | 0 mm | - | 805 W/m² | - |
| 1777832107 | 16.11° C | 55% | 1009.7 hPa | 0 mm | - | 768 W/m² | - |
| 1777831807 | 15.56° C | 54% | 1010.2 hPa | 0 mm | - | 555 W/m² | - |
| 1777831507 | 15.56° C | 59% | 1010.2 hPa | 0 mm | - | 527 W/m² | - |
| 1777831206 | 15° C | 61% | 1010.2 hPa | 0 mm | - | 476 W/m² | - |
| 1777830906 | 14.44° C | 60% | 1010.7 hPa | 0 mm | - | 541 W/m² | - |
| 1777830606 | 13.89° C | 60% | 1010.7 hPa | 0 mm | - | 439 W/m² | - |
| 1777830306 | 13.89° C | 60% | 1011 hPa | 0 mm | - | 241 W/m² | - |
| 1777830007 | 13.33° C | 61% | 1011.2 hPa | 0 mm | - | 183 W/m² | - |
| 1777829707 | 13.33° C | 63% | 1011.4 hPa | 0 mm | - | 142 W/m² | - |
| 1777829408 | 13.33° C | 65% | 1011.4 hPa | 0 mm | - | 163 W/m² | - |
| 1777829107 | 13.33° C | 68% | 1011.5 hPa | 0 mm | - | 176 W/m² | - |
| 1777828808 | 12.78° C | 69% | 1011.9 hPa | 0 mm | - | 329 W/m² | - |
| 1777828507 | 12.22° C | 70% | 1011.9 hPa | 0 mm | - | 436 W/m² | - |
| 1777828208 | 11.67° C | 69% | 1012.2 hPa | 0 mm | - | 211 W/m² | - |
| 1777827906 | 11.67° C | 71% | 1012.3 hPa | 0.25 mm | - | 151 W/m² | - |
| 1777827606 | 11.67° C | 71% | 1012.4 hPa | 0.25 mm | - | 90 W/m² | - |
| 1777827307 | 11.11° C | 71% | 1012.3 hPa | 0.25 mm | - | 60 W/m² | - |
| 1777827007 | 11.11° C | 75% | 1012.5 hPa | 0.25 mm | - | 65 W/m² | - |
| 1777826707 | 11.11° C | 78% | 1012.5 hPa | 0.25 mm | - | 67 W/m² | - |
* Rain latest hour (hover to see other rain measurements)
** Current wind speed in m/s (hover to see current wind gust speed)